Wind_Speed
6 6 6 6 6 5 5 4 3 3 3 2 2 2 1 1 1 2 2 2 2 2 2 2 1 1 1 2 2 3 3 3 3 4 3 3 4 4 5 5 5 6 6 6 6 6 6 6 6
5 5 5 6 6 6 5 4 4 3 3 2 2 2 1 0 1 1 2 2 2 3 2 3 2 3 3 3 4 4 4 5 5 5 4 4 4 5 6 6 6 7 6 6 6 6 7 7 7
5 5 5 5 6 6 6 5 4 3 3 2 2 2 1 1 1 2 2 1 1 2 2 3 3 3 4 4 4 5 5 6 6 6 5 6 6 6 6 7 7 7 7 7 7 8 7 7 7
6 6 5 6 5 5 4 4 4 3 2 2 2 2 1 1 1 2 2 1 0 1 3 3 4 4 5 6 6 6 5 5 6 7 7 7 7 7 7 7 7 8 8 8 8 8 8 8 8
7 7 6 6 5 5 4 3 3 3 2 2 2 1 2 2 2 2 2 2 2 2 3 4 5 6 6 6 7 7 7 6 6 7 7 8 8 7 8 7 8 8 8 8 8 8 9 9 9
7 7 7 6 5 5 4 3 3 3 3 2 2 2 2 3 3 3 3 3 3 3 3 4 5 6 7 7 7 7 7 7 8 8 8 8 8 8 8 8 8 8 8 8 8 9 9 9 10
7 7 7 6 5 5 4 3 3 3 3 3 3 3 3 3 3 3 4 4 3 3 4 4 5 6 6 7 7 7 7 8 8 8 8 8 8 9 9 8 8 9 9 9 9 9 9 9 9
8 7 6 6 5 5 5 4 3 3 4 4 4 3 3 3 3 4 4 4 4 4 5 5 5 5 5 5 5 6 7 7 8 8 8 9 9 9 9 8 8 9 9 9 9 9 10 9 9
8 7 6 6 5 5 4 4 4 3 3 4 4 4 4 4 4 4 4 4 4 5 5 5 5 5 4 4 4 5 6 7 7 7 8 8 9 9 9 9 9 9 9 9 9 9 10 10 9
8 7 7 7 6 5 4 3 3 3 4 4 4 4 4 4 5 5 5 5 5 5 5 5 5 5 5 5 5 5 6 7 7 7 8 8 9 9 9 9 9 9 9 9 9 10 10 10 10
8 8 8 8 7 6 5 5 4 4 4 4 4 5 5 5 5 5 5 5 5 5 6 6 6 6 6 6 6 6 7 7 7 8 8 8 9 9 9 9 9 10 11 11 10 11 10 10 10
9 9 9 8 8 7 7 6 5 5 4 5 5 5 6 6 6 6 6 6 6 6 6 7 7 7 7 7 7 7 7 7 7 8 9 9 9 10 10 9 10 11 11 11 11 12 12 12 12
10 10 9 9 9 8 7 7 6 5 5 5 5 6 6 7 7 7 7 7 7 7 7 8 8 8 8 8 8 8 8 8 8 9 9 9 10 10 10 10 10 10 11 12 12 12 13 13 14
10 10 10 9 9 9 8 8 7 6 6 5 6 6 6 7 7 7 7 7 8 8 8 8 8 8 8 8 8 8 9 9 9 9 9 9 10 10 10 10 10 11 11 11 12 12 12 13 13
11 11 11 10 10 9 9 9 8 8 8 7 7 6 7 7 7 7 7 7 8 8 8 8 8 8 8 8 9 9 10 10 10 10 10 10 10 10 10 10 10 10 11 11 11 12 12 13 14
11 11 11 10 11 10 9 9 9 8 8 8 8 8 8 7 7 7 7 7 8 8 8 8 8 9 9 9 9 9 9 10 10 10 10 10 10 10 10 10 11 11 12 12 12 13 13 13 14
12 12 12 12 11 11 10 9 10 9 9 8 8 8 8 8 8 7 7 7 7 8 8 8 9 9 9 10 10 10 10 10 10 10 11 11 11 11 11 11 12 12 13 13 14 14 14 14 14
12 13 13 12 11 11 11 10 10 10 10 9 9 9 9 8 8 7 7 8 8 8 9 9 10 10 10 10 11 11 11 11 11 11 11 11 11 12 12 12 13 13 14 14 14 14 14 14 14
13 13 13 13 12 12 12 11 11 11 10 10 10 9 9 8 8 8 8 8 9 9 9 9 10 11 11 11 11 11 12 11 11 12 12 12 12 13 13 14 14 15 15 15 15 15 14 15 15
13 13 14 14 14 13 12 12 11 12 11 10 10 9 9 9 8 9 9 9 9 10 10 10 11 12 12 12 12 12 12 12 13 13 13 13 14 14 14 14 14 15 15 16 16 16 15 16 16
14 14 14 14 14 13 13 12 12 12 12 11 11 10 10 9 9 10 10 10 10 10 11 11 12 13 13 13 13 13 13 14 14 14 14 14 14 14 15 16 16 16 16 16 17 17 17 17 17
14 14 13 13 14 13 14 13 12 12 12 12 12 11 10 11 11 11 11 11 12 12 12 12 13 14 14 14 15 14 14 14 15 15 15 15 16 15 16 16 17 17 17 17 17 17 17 17 18
13 14 14 14 14 14 13 14 12 13 12 12 12 12 12 12 11 12 12 13 13 13 13 13 14 14 15 15 16 16 15 15 16 16 16 16 17 16 16 17 17 17 17 18 18 18 18 18 18
13 14 14 14 15 15 14 15 13 13 13 12 12 12 12 12 12 13 13 13 13 13 14 14 15 15 15 16 16 16 16 16 16 16 16 17 17 16 16 17 18 18 18 18 18 19 19 18 19
13 14 14 14 15 15 14 16 14 13 13 13 13 13 12 12 13 14 14 14 14 14 15 15 15 16 17 17 17 17 17 17 16 16 17 17 17 17 17 18 18 18 18 19 19 19 19 19 19
12 14 15 15 15 15 15 16 15 14 13 13 13 14 14 14 15 15 15 15 15 16 16 16 16 17 18 18 18 18 17 16 17 17 17 17 17 17 17 18 18 19 19 19 19 19 19 20 20
13 14 15 16 16 16 16 16 15 15 14 14 14 14 15 15 15 16 16 17 17 17 17 18 17 18 18 18 18 18 18 18 18 18 18 18 19 18 18 18 19 19 19 20 20 20 20 20 20
13 14 15 16 17 17 16 15 14 15 15 14 14 14 16 16 16 16 17 17 17 18 18 19 18 18 18 18 18 18 18 18 18 19 19 19 19 19 19 19 19 20 20 21 21 21 21 21 21
14 14 15 17 18 19 18 16 15 15 15 15 15 15 16 17 17 17 18 18 18 18 18 19 18 18 18 18 18 19 19 19 19 20 20 20 20 20 20 20 20 21 21 21 21 21 22 21 22
15 15 16 17 18 19 20 17 15 16 16 16 16 17 17 17 17 18 18 19 19 19 19 18 19 19 19 19 19 20 20 20 20 20 20 20 20 21 21 21 21 22 22 22 21 21 21 22 22
Wind_Direction
198 194 198 203 206 209 210 211 202 180 185 184 177 172 172 201 288 293 281 261 238 236 234 241 252 255 261 265 258 254 257 254 250 247 253 265 272 274 280 278 276 272 270 270 269 270 266 268 271
200 199 205 210 216 219 213 209 202 188 196 193 182 177 167 82 6 322 302 269 238 233 233 250 269 271 268 273 271 266 261 256 255 255 258 269 275 275 278 276 277 276 272 271 268 266 265 267 270
209 211 220 222 223 223 215 208 209 200 204 201 197 195 219 283 359 357 3 296 205 226 236 254 270 284 285 285 283 270 265 258 252 255 259 269 274 274 275 275 278 277 270 272 269 267 263 265 271
223 225 227 228 226 219 212 206 211 199 204 205 209 216 252 283 312 336 3 20 280 272 275 273 278 280 277 276 273 268 264 263 256 257 264 273 275 274 276 275 276 276 274 272 272 270 266 269 267
234 238 239 229 226 221 212 205 204 198 216 216 220 234 267 292 302 313 319 320 310 295 284 276 278 278 275 273 267 266 264 265 261 264 269 275 276 275 275 277 278 276 277 276 275 273 271 268 267
237 240 237 231 226 221 212 206 204 210 221 233 250 258 276 293 299 302 300 299 297 296 295 288 284 285 282 271 261 260 261 264 267 270 273 278 278 276 276 280 281 280 280 280 279 277 273 268 270
234 234 234 233 226 220 211 202 204 217 232 240 248 260 278 290 301 306 303 305 301 293 292 293 294 296 289 276 259 253 257 263 268 272 276 281 283 282 281 283 285 283 283 283 282 280 278 277 275
233 232 232 228 224 214 205 204 214 231 246 247 253 257 269 284 293 298 299 303 306 300 295 292 297 302 301 283 257 254 261 265 269 274 277 282 283 284 284 285 287 286 285 285 287 285 280 276 277
232 231 228 224 223 220 210 208 213 226 250 250 254 261 266 276 286 295 300 299 295 294 297 297 299 304 302 287 268 267 269 271 271 276 276 279 284 286 286 288 287 288 288 286 288 284 280 278 277
228 231 229 226 225 225 223 217 219 234 250 256 257 261 264 273 282 288 294 295 290 289 291 293 296 295 295 287 278 274 277 276 276 277 278 283 285 286 285 286 288 288 287 285 282 280 277 277 276
229 231 232 231 231 229 236 242 239 240 246 253 258 261 271 277 281 286 289 289 287 287 285 285 289 288 289 287 284 278 278 280 282 283 284 285 288 288 286 283 284 284 284 284 281 282 277 277 277
231 232 233 234 235 235 237 242 241 242 252 257 261 261 266 273 279 283 284 285 288 285 283 282 287 290 289 288 287 286 283 283 284 284 286 287 288 289 291 289 284 284 283 283 282 281 279 281 282
232 233 234 234 237 238 241 242 244 246 250 256 262 266 269 272 271 275 279 282 286 284 284 286 288 288 289 290 290 290 287 285 285 287 290 290 290 294 294 293 290 287 286 283 283 281 281 283 285
230 233 235 232 232 233 239 244 245 251 258 261 266 274 276 275 274 276 276 278 283 283 283 283 285 284 285 287 289 292 291 287 286 287 289 292 295 296 298 296 293 290 287 285 285 284 284 284 286
232 235 235 234 234 235 242 247 248 255 262 267 273 277 279 279 277 277 279 278 281 282 279 279 281 280 279 280 282 286 289 288 287 286 289 291 294 296 297 295 293 292 289 289 290 288 287 286 287
231 231 232 233 236 239 245 247 252 256 261 266 271 273 279 281 278 278 279 281 281 282 279 278 281 284 284 282 285 286 289 289 286 287 290 292 294 296 297 294 295 295 294 293 294 292 292 293 293
233 235 237 238 243 247 251 253 253 253 257 262 265 268 274 279 276 273 276 280 283 282 283 282 282 284 283 285 287 287 287 290 289 288 290 290 291 292 294 294 295 295 296 296 298 297 296 296 295
235 238 242 244 246 249 254 254 254 256 259 262 263 266 272 276 275 274 275 278 280 281 283 281 281 284 284 285 287 286 288 290 293 292 291 289 289 291 293 294 294 295 295 296 297 299 298 297 295
238 242 246 247 248 250 253 254 254 257 261 263 262 261 264 268 274 272 272 279 276 276 280 284 283 286 287 290 289 287 289 291 293 292 290 289 290 290 290 291 292 294 296 297 298 299 298 296 294
239 246 248 248 249 250 254 256 258 261 264 265 263 259 259 265 270 272 269 273 275 276 278 283 286 287 290 291 291 292 291 291 291 291 290 290 291 291 290 289 291 294 296 297 299 298 297 295 294
242 247 252 252 252 252 255 253 256 262 263 263 261 258 257 263 267 269 271 273 274 275 279 283 286 286 286 287 289 290 291 290 289 290 291 290 290 289 289 288 289 291 293 296 296 296 296 295 293
245 247 248 251 252 253 257 255 256 261 261 264 262 260 256 261 265 269 270 272 273 274 277 281 284 286 286 286 286 287 287 288 290 289 288 289 290 290 290 289 290 290 291 293 294 295 295 294 292
245 245 246 250 253 253 253 258 257 259 261 264 263 263 260 262 267 271 273 274 273 274 275 279 284 286 285 284 285 286 286 287 288 287 287 288 289 288 288 290 291 292 291 292 292 293 294 293 292
246 244 247 251 253 255 255 260 261 260 261 261 263 264 262 262 268 272 274 275 274 275 276 278 282 286 286 287 286 286 287 287 288 288 288 289 289 288 288 289 290 290 291 292 292 291 292 293 292
244 246 248 252 254 256 255 257 263 264 262 261 263 263 259 259 265 269 271 274 275 277 279 279 279 281 284 286 286 287 289 286 286 287 286 288 288 288 289 289 290 290 291 293 292 291 291 293 294
241 246 251 256 257 256 255 257 261 261 259 261 266 265 261 260 263 266 270 273 277 278 279 280 279 280 282 283 284 286 287 288 288 287 286 286 287 289 290 290 291 291 292 293 293 291 291 291 292
245 249 254 260 261 259 259 260 259 259 262 264 266 266 265 263 264 267 270 274 276 276 276 278 279 280 281 281 283 285 285 285 287 287 286 286 286 287 290 291 292 293 292 292 292 291 291 290 290
250 255 258 261 266 267 263 261 263 259 263 264 265 267 268 267 267 268 270 272 276 276 277 278 278 279 279 280 281 283 284 284 285 287 288 287 286 287 289 290 291 293 294 293 292 290 291 290 289
249 256 261 263 266 268 266 264 267 265 263 264 265 266 267 270 271 270 271 273 276 276 276 279 278 278 279 279 280 283 284 284 285 286 287 287 286 286 288 289 290 291 293 292 291 292 291 291 292
252 255 261 264 267 266 266 267 265 265 263 263 265 267 268 270 271 272 274 275 276 278 279 279 278 279 278 278 279 282 283 284 286 286 287 286 287 288 289 290 290 291 292 291 291 290 291 292 292
Height
5868 5868 5869 5871 5872 5872 5871 5872 5872 5872 5872 5872 5872 5872 5872 5873 5873 5874 5871 5869 5870 5870 5871 5872 5872 5872 5873 5873 5873 5873 5873 5874 5873 5873 5873 5873 5873 5873 5872 5872 5871 5871 5870 5870 5870 5869 5869 5868 5868
5867 5868 5870 5871 5870 5871 5872 5871 5871 5871 5872 5872 5872 5872 5872 5872 5871 5870 5867 5865 5866 5869 5870 5871 5872 5872 5872 5872 5872 5873 5873 5873 5873 5872 5872 5872 5872 5872 5871 5871 5870 5869 5869 5869 5869 5868 5868 5867 5867
5867 5868 5869 5869 5869 5870 5871 5870 5870 5871 5871 5871 5872 5872 5872 5871 5871 5869 5866 5864 5865 5868 5870 5870 5871 5871 5871 5871 5871 5871 5871 5872 5872 5871 5871 5871 5871 5871 5870 5870 5869 5868 5868 5868 5867 5867 5866 5866 5866
5867 5868 5869 5869 5869 5869 5870 5870 5870 5870 5870 5871 5871 5872 5871 5871 5870 5869 5868 5867 5867 5868 5869 5869 5870 5870 5870 5870 5870 5870 5870 5870 5870 5870 5870 5870 5870 5869 5869 5868 5868 5868 5867 5866 5866 5865 5865 5865 5864
5866 5867 5868 5868 5868 5868 5869 5869 5869 5870 5870 5870 5871 5871 5871 5871 5870 5869 5868 5868 5868 5868 5868 5869 5869 5868 5867 5867 5867 5868 5869 5869 5869 5869 5869 5869 5869 5868 5868 5867 5867 5866 5866 5865 5864 5864 5864 5863 5863
5865 5866 5867 5867 5867 5868 5868 5868 5869 5869 5869 5870 5870 5870 5870 5870 5870 5869 5868 5868 5868 5868 5868 5868 5867 5866 5864 5863 5864 5865 5867 5867 5868 5868 5868 5868 5867 5866 5866 5866 5865 5865 5864 5863 5863 5862 5862 5862 5861
5865 5865 5865 5866 5866 5866 5867 5867 5868 5868 5868 5869 5869 5869 5869 5869 5869 5869 5868 5868 5868 5867 5867 5866 5865 5863 5860 5858 5860 5863 5865 5866 5866 5866 5866 5866 5866 5865 5864 5864 5864 5863 5862 5862 5861 5861 5860 5860 5859
5862 5864 5863 5864 5865 5865 5866 5866 5867 5867 5868 5868 5869 5869 5869 5869 5868 5868 5868 5867 5867 5867 5866 5866 5864 5862 5859 5857 5858 5861 5863 5864 5864 5864 5865 5864 5864 5863 5863 5862 5862 5861 5860 5860 5860 5859 5858 5858 5857
5861 5863 5862 5863 5864 5865 5865 5865 5866 5866 5867 5867 5867 5868 5868 5868 5867 5867 5867 5867 5866 5866 5865 5865 5864 5863 5861 5860 5860 5861 5862 5863 5863 5863 5863 5863 5862 5862 5861 5861 5860 5859 5859 5858 5858 5857 5856 5856 5855
5860 5861 5861 5862 5863 5863 5863 5864 5865 5866 5866 5866 5866 5866 5866 5867 5866 5867 5866 5866 5866 5865 5865 5864 5864 5863 5862 5861 5861 5861 5861 5861 5861 5861 5861 5861 5860 5860 5859 5859 5858 5858 5857 5857 5856 5855 5854 5854 5853
5858 5859 5860 5860 5861 5862 5862 5863 5864 5865 5865 5865 5865 5865 5865 5865 5865 5865 5865 5865 5865 5864 5864 5863 5863 5862 5862 5861 5861 5860 5860 5860 5860 5860 5859 5859 5858 5858 5857 5857 5856 5856 5855 5855 5854 5853 5852 5852 5851
5857 5857 5858 5858 5859 5860 5861 5862 5863 5863 5864 5864 5863 5863 5864 5864 5864 5864 5864 5864 5863 5863 5863 5862 5862 5861 5861 5860 5860 5859 5859 5859 5858 5858 5857 5857 5857 5856 5855 5855 5854 5853 5853 5852 5851 5850 5850 5849 5848
5854 5855 5856 5857 5857 5858 5859 5860 5861 5862 5862 5862 5862 5862 5862 5862 5862 5862 5862 5862 5862 5861 5861 5861 5860 5860 5859 5859 5859 5858 5857 5857 5856 5856 5856 5855 5855 5854 5853 5853 5852 5851 5850 5849 5848 5848 5847 5846 5845
5852 5853 5854 5855 5856 5856 5857 5858 5859 5860 5860 5860 5860 5860 5860 5860 5860 5860 5860 5860 5860 5860 5859 5859 5859 5858 5858 5858 5857 5856 5855 5855 5854 5854 5853 5853 5852 5852 5851 5850 5849 5848 5847 5846 5846 5845 5844 5843 5842
5850 5851 5852 5853 5853 5854 5856 5857 5857 5858 5858 5858 5858 5858 5858 5858 5858 5858 5858 5858 5858 5858 5858 5857 5857 5856 5856 5856 5855 5854 5854 5853 5852 5852 5851 5850 5850 5849 5848 5848 5847 5846 5845 5844 5843 5842 5841 5840 5839
5848 5849 5850 5851 5851 5852 5855 5855 5855 5855 5855 5856 5856 5856 5856 5857 5857 5856 5856 5856 5856 5856 5856 5856 5855 5854 5854 5853 5853 5852 5851 5851 5850 5849 5849 5848 5847 5846 5846 5845 5844 5843 5842 5841 5840 5838 5837 5836 5835
5845 5846 5847 5849 5849 5849 5851 5852 5852 5852 5853 5854 5854 5854 5854 5854 5854 5854 5854 5854 5854 5854 5854 5853 5853 5852 5852 5851 5851 5850 5849 5848 5848 5847 5846 5845 5845 5844 5843 5842 5841 5840 5839 5838 5837 5835 5834 5833 5832
5843 5844 5845 5846 5847 5847 5848 5849 5850 5850 5851 5851 5852 5852 5852 5852 5852 5852 5852 5852 5852 5852 5852 5851 5851 5850 5849 5849 5848 5848 5847 5846 5845 5844 5843 5843 5842 5841 5840 5839 5838 5837 5836 5834 5833 5832 5830 5829 5828
5839 5841 5842 5843 5843 5844 5845 5846 5846 5847 5847 5848 5849 5850 5850 5850 5850 5850 5850 5850 5850 5849 5849 5848 5848 5848 5847 5846 5846 5845 5844 5843 5842 5841 5840 5840 5839 5838 5837 5836 5835 5834 5832 5831 5830 5828 5827 5825 5824
5836 5837 5838 5839 5840 5841 5841 5842 5843 5843 5844 5845 5846 5846 5847 5847 5847 5847 5847 5848 5847 5847 5846 5846 5845 5845 5844 5843 5843 5842 5841 5840 5839 5838 5837 5836 5835 5834 5833 5832 5831 5830 5829 5827 5826 5824 5823 5821 5819
5833 5834 5835 5835 5836 5837 5838 5839 5840 5840 5840 5841 5842 5843 5843 5844 5844 5844 5844 5844 5844 5844 5844 5843 5843 5842 5841 5841 5840 5839 5838 5837 5836 5835 5833 5832 5831 5830 5829 5828 5827 5826 5825 5823 5822 5820 5818 5817 5815
5829 5831 5831 5832 5832 5833 5835 5835 5836 5837 5837 5838 5838 5839 5840 5841 5841 5841 5841 5841 5841 5841 5840 5840 5839 5839 5838 5837 5836 5835 5834 5833 5832 5831 5830 5828 5827 5826 5825 5824 5823 5822 5820 5819 5817 5816 5814 5812 5810
5826 5827 5828 5828 5828 5830 5830 5831 5833 5833 5833 5834 5834 5835 5836 5837 5837 5837 5838 5838 5838 5837 5837 5836 5836 5835 5834 5833 5833 5832 5830 5829 5828 5827 5826 5825 5823 5822 5821 5820 5819 5817 5816 5814 5813 5811 5809 5808 5806
5822 5823 5824 5824 5824 5826 5827 5826 5828 5828 5829 5830 5830 5831 5832 5833 5833 5833 5834 5834 5834 5833 5833 5832 5832 5831 5830 5829 5829 5827 5826 5825 5824 5822 5821 5820 5819 5818 5817 5815 5814 5813 5811 5809 5808 5806 5804 5803 5801
5819 5820 5821 5820 5820 5822 5823 5822 5824 5824 5825 5826 5826 5827 5828 5828 5829 5829 5829 5830 5829 5829 5829 5828 5828 5827 5826 5825 5824 5823 5822 5820 5819 5818 5817 5816 5815 5813 5812 5811 5809 5808 5806 5805 5803 5801 5799 5798 5796
5815 5817 5818 5818 5817 5817 5818 5818 5820 5820 5820 5821 5822 5823 5823 5824 5824 5825 5825 5825 5825 5824 5824 5824 5823 5823 5822 5821 5820 5819 5817 5816 5815 5814 5812 5811 5810 5809 5808 5806 5805 5803 5801 5800 5798 5796 5794 5793 5791
5812 5812 5814 5814 5813 5813 5813 5814 5815 5816 5816 5817 5818 5818 5819 5819 5820 5820 5820 5820 5820 5819 5819 5819 5818 5818 5817 5816 5815 5814 5813 5812 5810 5809 5807 5806 5805 5804 5803 5801 5800 5798 5796 5795 5793 5790 5789 5787 5785
5809 5809 5809 5809 5809 5808 5809 5810 5811 5811 5812 5812 5813 5814 5814 5815 5815 5815 5815 5815 5815 5814 5814 5813 5813 5812 5812 5811 5810 5809 5808 5807 5805 5804 5803 5801 5800 5799 5798 5796 5795 5793 5791 5789 5787 5785 5783 5782 5780
5805 5806 5805 5805 5805 5805 5804 5808 5806 5806 5807 5807 5808 5809 5809 5810 5810 5810 5810 5810 5809 5809 5809 5808 5808 5807 5807 5806 5805 5804 5803 5802 5800 5799 5797 5796 5795 5793 5792 5791 5789 5787 5785 5783 5781 5779 5778 5776 5774
5801 5801 5801 5802 5801 5800 5800 5804 5802 5801 5801 5802 5803 5803 5804 5805 5805 5805 5805 5804 5804 5803 5803 5803 5803 5802 5801 5801 5800 5799 5797 5796 5795 5794 5792 5791 5789 5788 5786 5785 5783 5781 5779 5777 5775 5774 5772 5770 5768